CZ-3C DEB, 48550

Orbit data source: Space-Track

CZ-3C DEB, 48550 is space debris in HEO originally from a launch on Fri, 24 Feb 2012 UTC launched from the Xichang Space Center, China (XSC). Debris objects in space refer to the collection of defunct objects orbiting the Earth. Examples of debris include non-operational satellites, rocket bodies, and fragments generated from explosions, collisions, or faulty payload assembly.

Loading next visibility...
Identifier
48550, 2012-008AV
Orbit
HEO
Country
Flag of CNCN / PRC
Related business
Manufacturer
CALT
Mission
Spacecraft
Bus & Motor
Unknown
Mass
Unknown
Launch date (UTC)
2012-02-24 (14 years ago)
Launch vehicle
Unknown
Launch site
Xichang Space Center, China (XSC)
Object type
Payload
Rocket body
Debris
Shape & HBR
Unknown shape, 0.2 m
Radar Cross Section
Medium (>0.1 m² and <1 m²)

Expand to show TLE details & history
Last TLE update: 19 hours ago

TLE from 19 hours ago
0 CZ-3C DEB
1 48550U 12008AV  26235.62233581 -.00000125  00000-0  00000-0 0  9990
2 48550  19.9908 154.3931 6973909 328.3894   4.2606  2.24689971 91338
Epoch: 2026-08-23T14:56Z
TLE epoch observation values (Epoch: 2026-08-23T14:56:09.813Z)
Latitude
-0.00003°
Longitude
-41.65346°
Altitude
1,538.982 km
Speed
9.192 km/s
True Right ascension
10h 17m 12s
True Declination
0° 00' 00"
Sunlit
Object was in daylight at epoch
Visualization orbit readout
Latitude
Unknown
Longitude
Unknown
Altitude
Unknown
Speed
Unknown
Apparent Right ascension
Unknown
Apparent Declination
Unknown
Sunlit
N/A
Visualization observer readout
Local Sidereal Time
00:46:57
Azimuth
Unknown
Elevation
Unknown
Doppler factor
Unknown
Orbital elements
Apogee altitude
35,424.036 km
Perigee altitude
1,074.311 km
Semi-major axis
24,627.311 km
Eccentricity
0.69739
Inclination
19.9908°
RAAN
154.3931°
Arg. of periapsis
328.3894°
True anomaly
31.92874°
Mean anomaly
4.2606°
Eccentric anomaly
13.77463°
Mean motion
0.56159 °/min
Orbital period
641.04 mins
BSTAR
0
Loading maneuver chart data...
Computing Atmospheric mass density...
Loading historical data...
Loading historical data...
Loading historical data...
Loading historical data...
Loading historical data...
Loading historical data...
Loading historical data...

Documentation

Showing up to 5 results
|